This is the latest recevied weather packets stored in our database for station/object W1SCW. If no packets are shown the sender has not sent any weather packets the latest 1 day(s).
| Time | Temp. | Humidity | Pressure | Rain* | Wind** | Luminosity | Snow |
|---|---|---|---|---|---|---|---|
| 1777987578 | 23.33° C | 91% | 1007.9 hPa | 0 mm | 0.89 m/s, 125° | 70 W/m² | - |
| 1777987276 | 23.89° C | 91% | 1007.8 hPa | 0 mm | 1.34 m/s, 158° | 90 W/m² | - |
| 1777986972 | 23.33° C | 91% | 1007.9 hPa | 0 mm | 0.45 m/s, 178° | 153 W/m² | - |
| 1777986670 | 23.33° C | 92% | 1007.4 hPa | 0 mm | 1.34 m/s, 194° | 137 W/m² | - |
| 1777986368 | 23.33° C | 92% | 1007.3 hPa | 0 mm | 0.89 m/s, 210° | 137 W/m² | - |
| 1777986066 | 22.78° C | 93% | 1007.4 hPa | 0 mm | 2.68 m/s, 188° | 114 W/m² | - |
| 1777985762 | 22.78° C | 93% | 1007.5 hPa | 0 mm | 1.79 m/s, 167° | 106 W/m² | - |
| 1777985459 | 22.78° C | 93% | 1007.3 hPa | 0 mm | 0.89 m/s, 165° | 85 W/m² | - |
| 1777985156 | 22.78° C | 94% | 1007.3 hPa | 0 mm | 1.34 m/s, 171° | 107 W/m² | - |
| 1777984852 | 22.22° C | 94% | 1007.2 hPa | 0 mm | 0.89 m/s, 174° | 85 W/m² | - |
| 1777984548 | 22.22° C | 94% | 1007.3 hPa | 0 mm | 1.34 m/s, 225° | 60 W/m² | - |
| 1777984245 | 22.22° C | 94% | 1007.3 hPa | 0 mm | 0 m/s | 56 W/m² | - |
| 1777983942 | 22.22° C | 95% | 1007.2 hPa | 0 mm | 0.89 m/s, 201° | 68 W/m² | - |
| 1777983638 | 22.22° C | 95% | 1006.9 hPa | 0 mm | 0.89 m/s, 195° | 49 W/m² | - |
| 1777983335 | 21.67° C | 95% | 1007.2 hPa | 0 mm | 0.89 m/s, 163° | 39 W/m² | - |
| 1777983032 | 21.67° C | 96% | 1007.2 hPa | 0 mm | 0.89 m/s, 209° | 30 W/m² | - |
| 1777982728 | 21.67° C | 96% | 1007.1 hPa | 0 mm | 0.45 m/s, 144° | 20 W/m² | - |
| 1777982423 | 21.67° C | 96% | 1006.9 hPa | 0 mm | 0.45 m/s, 268° | 11 W/m² | - |
| 1777982118 | 21.67° C | 96% | 1006.9 hPa | 0 mm | 1.79 m/s, 196° | 8 W/m² | - |
| 1777981816 | 21.67° C | 96% | 1006.8 hPa | 0 mm | 0.89 m/s, 170° | 7 W/m² | - |
| 1777981513 | 21.67° C | 96% | 1006.7 hPa | 0 mm | 0.89 m/s, 158° | 4 W/m² | - |
| 1777981209 | 21.67° C | 95% | 1006.7 hPa | 0 mm | 0.45 m/s, 299° | 2 W/m² | - |
| 1777980907 | 21.67° C | 95% | 1006.9 hPa | 0 mm | 0 m/s | 1 W/m² | - |
| 1777980603 | 21.67° C | 96% | 1007.2 hPa | 0 mm | 1.79 m/s, 203° | 1 W/m² | - |
| 1777980299 | 21.67° C | 95% | 1007.2 hPa | 0 mm | 1.79 m/s, 193° | 0 W/m² | - |
* Rain latest hour (hover to see other rain measurements)
** Current wind speed in m/s (hover to see current wind gust speed)